• In Moldova, Republic
  • List of Countries
  • For 7 days
  • Water Temperature
  • Satellite Maps
  • Weather Map
  • Weather Widgets
  • user-avatar
    Login

    Hourly Weather Quito

    Today, 23 April, Sunday

    Time Temperature Precipitation Wind Pressure Humidity
    00:00 +15°C° 0.1 mm 1 mps 621 mmHg 95%
    01:00 +15°C° 0 mm 1 mps 621 mmHg 96%
    02:00 +14°C° 0 mm 1 mps 621 mmHg 96%
    03:00 +14°C° 0 mm 1 mps 621 mmHg 95%
    04:00 +14°C° 0 mm 1 mps 621 mmHg 95%
    05:00 +14°C° 0 mm 1 mps 621 mmHg 94%
    06:00 +15°C° 0 mm 1 mps 622 mmHg 92%
    07:00 +16°C° 0 mm 1 mps 623 mmHg 91%
    08:00 +19°C° 0 mm 1 mps 623 mmHg 79%
    09:00 +22°C° 0 mm 1 mps 624 mmHg 68%
    10:00 +25°C° 0 mm 1 mps 625 mmHg 57%
    11:00 +26°C° 0 mm 1 mps 625 mmHg 53%
    12:00 +25°C° 0 mm 0 mps 625 mmHg 50%
    13:00 +26°C° 0 mm 0 mps 625 mmHg 46%
    14:00 +26°C° 0.1 mm 0 mps 624 mmHg 48%
    15:00 +25°C° 0.1 mm 0 mps 623 mmHg 50%
    16:00 +26°C° 0.1 mm 1 mps 623 mmHg 53%
    17:00 +24°C° 0 mm 1 mps 622 mmHg 61%
    18:00 +21°C° 0 mm 1 mps 622 mmHg 69%
    19:00 +19°C° 0 mm 1 mps 621 mmHg 77%
    20:00 +19°C° 0 mm 1 mps 622 mmHg 79%
    21:00 +18°C° 0 mm 1 mps 622 mmHg 81%
    22:00 +18°C° 0 mm 1 mps 622 mmHg 83%
    23:00 +16°C° 0.1 mm 1 mps 622 mmHg 85%

    Tomorrow, 24 April, Monday

    Time Temperature Precipitation Wind Pressure Humidity
    00:00 +15°C° 0.1 mm 1 mps 622 mmHg 87%
    01:00 +14°C° 0.1 mm 1 mps 622 mmHg 88%
    02:00 +14°C° 0 mm 1 mps 621 mmHg 88%
    03:00 +13°C° 0 mm 1 mps 621 mmHg 87%
    04:00 +13°C° 0 mm 1 mps 621 mmHg 86%
    05:00 +14°C° 0 mm 1 mps 621 mmHg 83%
    06:00 +14°C° 0 mm 1 mps 622 mmHg 81%
    07:00 +15°C° 0 mm 1 mps 622 mmHg 78%
    08:00 +19°C° 0 mm 1 mps 624 mmHg 67%
    09:00 +22°C° 0 mm 1 mps 625 mmHg 56%
    10:00 +25°C° 0 mm 1 mps 626 mmHg 45%
    11:00 +27°C° 0 mm 1 mps 626 mmHg 41%
    12:00 +28°C° 0 mm 1 mps 625 mmHg 38%
    13:00 +30°C° 0 mm 1 mps 625 mmHg 35%
    14:00 +29°C° 0 mm 1 mps 625 mmHg 37%
    15:00 +28°C° 0 mm 1 mps 624 mmHg 40%
    16:00 +27°C° 0 mm 2 mps 623 mmHg 42%
    17:00 +24°C° 0 mm 2 mps 623 mmHg 51%
    18:00 +20°C° 0 mm 2 mps 622 mmHg 60%
    19:00 +17°C° 0 mm 2 mps 622 mmHg 69%
    20:00 +16°C° 0 mm 1 mps 622 mmHg 68%
    21:00 +16°C° 0 mm 1 mps 622 mmHg 67%
    22:00 +15°C° 0 mm 1 mps 622 mmHg 67%
    23:00 +14°C° 0 mm 1 mps 622 mmHg 67%

    Day after tomorrow, 25 April, Tuesday

    Time Temperature Precipitation Wind Pressure Humidity
    00:00 +13°C° 0 mm 1 mps 621 mmHg 66%
    01:00 +13°C° 0 mm 1 mps 621 mmHg 66%
    02:00 +12°C° 0 mm 1 mps 621 mmHg 65%
    03:00 +12°C° 0 mm 1 mps 620 mmHg 63%
    04:00 +12°C° 0 mm 1 mps 620 mmHg 62%
    05:00 +13°C° 0 mm 1 mps 621 mmHg 62%
    06:00 +14°C° 0 mm 1 mps 622 mmHg 63%
    07:00 +15°C° 0 mm 1 mps 623 mmHg 63%
    08:00 +19°C° 0 mm 1 mps 624 mmHg 54%
    09:00 +21°C° 0 mm 1 mps 625 mmHg 45%
    10:00 +24°C° 0 mm 2 mps 626 mmHg 35%
    11:00 +26°C° 0 mm 2 mps 625 mmHg 34%
    12:00 +27°C° 0 mm 1 mps 625 mmHg 32%
    13:00 +28°C° 0 mm 1 mps 625 mmHg 31%
    14:00 +28°C° 0 mm 1 mps 624 mmHg 33%
    15:00 +27°C° 0 mm 1 mps 624 mmHg 34%
    16:00 +27°C° 0 mm 1 mps 623 mmHg 35%
    17:00 +23°C° 0 mm 1 mps 622 mmHg 48%
    18:00 +20°C° 0 mm 1 mps 621 mmHg 61%
    19:00 +15°C° 0 mm 1 mps 620 mmHg 74%
    20:00 +14°C° 0 mm 1 mps 621 mmHg 77%
    21:00 +14°C° 0 mm 1 mps 621 mmHg 79%
    22:00 +13°C° 0 mm 1 mps 621 mmHg 81%
    23:00 +13°C° 0 mm 1 mps 621 mmHg 84%

    26 April, Wednesday

    Time Temperature Precipitation Wind Pressure Humidity
    00:00 +13°C° 0 mm 1 mps 621 mmHg 86%
    01:00 +12°C° 0 mm 0 mps 621 mmHg 88%
    02:00 +11°C° 0 mm 0 mps 620 mmHg 90%
    03:00 +11°C° 0 mm 0 mps 620 mmHg 91%
    04:00 +11°C° 0 mm 0 mps 620 mmHg 92%
    05:00 +13°C° 0 mm 0 mps 621 mmHg 90%
    06:00 +15°C° 0 mm 1 mps 623 mmHg 88%
    07:00 +18°C° 0 mm 1 mps 624 mmHg 86%
    08:00 +20°C° 0.1 mm 1 mps 624 mmHg 76%
    09:00 +21°C° 0.1 mm 2 mps 625 mmHg 67%
    10:00 +24°C° 0.1 mm 2 mps 626 mmHg 57%
    11:00 +25°C° 0 mm 2 mps 626 mmHg 53%
    12:00 +26°C° 0 mm 2 mps 625 mmHg 49%
    13:00 +27°C° 0 mm 2 mps 625 mmHg 44%
    14:00 +27°C° 0 mm 2 mps 624 mmHg 46%
    15:00 +26°C° 0 mm 2 mps 624 mmHg 48%
    16:00 +26°C° 0 mm 1 mps 623 mmHg 49%
    17:00 +24°C° 0 mm 1 mps 623 mmHg 56%
    18:00 +21°C° 0 mm 1 mps 622 mmHg 63%
    19:00 +19°C° 0 mm 1 mps 622 mmHg 70%
    20:00 +18°C° 0 mm 1 mps 622 mmHg 73%
    21:00 +18°C° 0 mm 1 mps 622 mmHg 76%
    22:00 +16°C° 0 mm 1 mps 622 mmHg 78%
    23:00 +15°C° 0 mm 1 mps 622 mmHg 81%

    27 April, Thursday

    Time Temperature Precipitation Wind Pressure Humidity
    00:00 +14°C° 0 mm 1 mps 621 mmHg 84%
    01:00 +14°C° 0 mm 1 mps 621 mmHg 86%
    02:00 +13°C° 0 mm 1 mps 621 mmHg 88%
    03:00 +13°C° 0 mm 1 mps 621 mmHg 90%
    04:00 +13°C° 0 mm 1 mps 621 mmHg 91%
    05:00 +14°C° 0 mm 1 mps 622 mmHg 90%
    06:00 +15°C° 0 mm 1 mps 623 mmHg 89%
    07:00 +15°C° 0 mm 1 mps 624 mmHg 88%
    08:00 +18°C° 0 mm 2 mps 625 mmHg 77%
    09:00 +20°C° 0 mm 2 mps 625 mmHg 67%
    10:00 +24°C° 0 mm 3 mps 626 mmHg 56%
    11:00 +25°C° 0 mm 3 mps 626 mmHg 51%
    12:00 +26°C° 0 mm 3 mps 625 mmHg 46%
    13:00 +27°C° 0 mm 3 mps 625 mmHg 41%
    14:00 +27°C° 0 mm 3 mps 624 mmHg 42%
    15:00 +26°C° 0 mm 2 mps 624 mmHg 43%
    16:00 +26°C° 0 mm 2 mps 624 mmHg 45%
    17:00 +23°C° 0 mm 2 mps 623 mmHg 55%
    18:00 +19°C° 0 mm 2 mps 622 mmHg 64%
    19:00 +16°C° 0 mm 1 mps 622 mmHg 74%
    20:00 +16°C° 0 mm 1 mps 622 mmHg 76%
    21:00 +15°C° 0 mm 1 mps 622 mmHg 79%
    22:00 +15°C° 0 mm 1 mps 622 mmHg 81%
    23:00 +14°C° 0 mm 1 mps 622 mmHg 82%

    28 April, Friday

    Time Temperature Precipitation Wind Pressure Humidity
    00:00 +14°C° 0 mm 1 mps 622 mmHg 84%
    01:00 +14°C° 0 mm 1 mps 622 mmHg 85%
    02:00 +13°C° 0 mm 1 mps 622 mmHg 86%
    03:00 +13°C° 0 mm 1 mps 622 mmHg 87%
    04:00 +12°C° 0 mm 1 mps 621 mmHg 88%
    05:00 +13°C° 0 mm 1 mps 622 mmHg 85%
    06:00 +14°C° 0 mm 1 mps 623 mmHg 82%
    07:00 +15°C° 0 mm 1 mps 624 mmHg 78%
    08:00 +18°C° 0 mm 2 mps 625 mmHg 71%
    09:00 +20°C° 0 mm 3 mps 626 mmHg 64%
    10:00 +23°C° 0 mm 4 mps 627 mmHg 57%
    11:00 +25°C° 0 mm 3 mps 626 mmHg 53%
    12:00 +26°C° 0 mm 3 mps 626 mmHg 49%
    13:00 +27°C° 0 mm 3 mps 625 mmHg 45%
    14:00 +27°C° 0 mm 3 mps 625 mmHg 46%
    15:00 +26°C° 0 mm 3 mps 624 mmHg 48%
    16:00 +26°C° 0 mm 3 mps 624 mmHg 50%
    17:00 +23°C° 0.1 mm 2 mps 624 mmHg 60%
    18:00 +20°C° 0.1 mm 2 mps 623 mmHg 71%
    19:00 +17°C° 0.1 mm 2 mps 623 mmHg 82%
    20:00 +16°C° 0.1 mm 2 mps 623 mmHg 85%
    21:00 +16°C° 0.1 mm 1 mps 623 mmHg 89%
    22:00 +15°C° 0.1 mm 1 mps 623 mmHg 92%
    23:00 +15°C° 0 mm 1 mps 623 mmHg 94%
    Show more